Location: �perlecques
(50.8057°N, 2.1521°E)
Time: 11:44:39
(UTC+00:00)

VELOX 1 - Pass Details

Date: 01 October 2021
Orbit: 626 x 643 km, 98.3° (Epoch: 16 October)

Event Time Altitude Azimuth Distance (km) Brightness Sun altitude
Exits shadow 03:19:32 81° 324° (NW) 643 ? -24.2°
Drops below altitude 10° 03:23:44 10° 345° (NNW) 2,016 ? -23.6°
Sets 03:25:56 0° 346° (NNW) 2,928 ? -23.3°
